Погода в Педро-Хуан-Кабальеро

Парагвай     22°33′48″S   55°43′12″W
темп.,
°C
ветер,
м/с
пор.,
м/с
влажн.,
%
обл.,
%
осадки,
мм/ч
давл.,
гПа
погр.,
м
1 марта, пн
пн100:00+20в410950 0.0 1008297
03:00+19всв410942 0.0 1007261
06:00+19всв38994 0.0 1008272
09:00+20св589439 0.0 1010448
12:00+24св468095 0.0 1010602
15:00+28св336470 0.1 10061034
18:00+25всв35879 1.9 1005550
21:00+21всв411956 5.1 1007318
2 марта, вт
вт200:00+21св412950 0.1 1009447
03:00+20св513941 0.3 1009498
06:00+20св514931 0.2 1009489
09:00+23св610822 0.2 1011520
12:00+28ссв46660 0.0 10101113
15:00+27ссв237932 4.7 1007793
18:00+26в1287100 9.4 100771
21:00+22всв359367 10.5 1009113
3 марта, ср
ср300:00+21св4129472 0.0 1011358
03:00+21св5139181 0.0 1010439
06:00+21св4129075 0.0 1011436
09:00+24ссв478241 0.0 1013449
12:00+28с566838 0.6 10121023
15:00+26сз358569 7.3 1010723
18:00+25ссз258889 6.3 1008315
21:00+21ссв239394 7.3 101063
4 марта, чт
чт400:00+21ссв389598 0.1 1012202
03:00+20ссв4119698 0.1 1011342
06:00+20ссв41295100 1.7 1011410
09:00+23с51287100 2.3 1013656
12:00+25ссз5108897 5.8 1011848
15:00+27сз587987 12.4 10091078
18:00+25сз3687100 2.9 1006510
21:00+22ссз2493100 10.8 1009106
5 марта, пт
пт500:00+21сз31096100 8.1 1009342
03:00+20зсз3799100 10.9 1007322
06:00+20сз4997100 1.5 1007444
09:00+21сз51092100 1.6 1009556
12:00+24сз698897 1.1 1009867
15:00+24сз589297 4.7 1006782
18:00+22сз489591 4.2 1005592
21:00+20сз389896 8.5 1006294